www.pogodaiklimat.ru

Погода и климат >> Архив погоды >> Россия >> Астраханская область >> Лиман


ПОГОДА в Лимане

  • Прогноз погоды в Лимане
  • Монитор погоды в Лимане

АРХИВ ПОГОДЫ в Лимане

Время (UTC), дата Ветер
(напр.,м/с)
 
Видим.   Явления Облачность Т
(С)
Тd
(С)
f
(%)
Тe
(С)
Тes
(С)
Комфортность P
(гПа)
Po
(гПа)
Тmin
(С)
Tmax
(С)
R
(мм)
R24
(мм)
S
(см)
12 14.08 С 2 20 км ясно +30.6 -1.0 13 +27 +36 жарко 1015.7 1017.5
15 14.08 штиль 0 20 км ясно +28.4 +3.0 20 +27 +27 жарко 1015.1 1016.9 +31.4
18 14.08 Ю 2 20 км ясно +21.0 +4.0 33 +22 +22 комфорт 1015.9 1017.7
21 14.08 Ю 2 20 км ясно +18.5 +9.0 54 +19 +19 1015.7 1017.6
00 15.08 ЮЗ 1 20 км ясно +16.4 +9.5 64 +17 +17 1015.3 1017.1
03 15.08 штиль 0 20 км ясно +16.7 +9.8 64 +17 +18 1015.6 1017.4 +14.7
06 15.08 СВ 1 20 км ясно +26.5 +8.2 31 +26 +38 жарко 1015.9 1017.7
09 15.08 В 3 20 км ясно +30.8 +2.5 16 +28 +41 жарко 1015.3 1017.1
12 15.08 ЮВ 4 20 км ясно +30.1 +5.6 21 +28 +34 жарко 1014.4 1016.1
15 15.08 В 3 20 км ясно +26.9 +6.3 27 +26 +27 жарко 1014.4 1016.2 +31.2
18 15.08 ЮВ 2 20 км ясно +21.8 +14.1 62 +25 +25 комфорт 1014.4 1016.2
21 15.08 В 2 20 км ясно +19.6 +15.8 79 +22 +22 комфорт 1014.1 1015.9
00 16.08 СВ 2 20 км ясно +18.8 +16.4 86 +21 +21 комфорт 1013.5 1015.3
03 16.08 В 2 20 км ясно +19.7 +17.2 85 +23 +24 комфорт 1012.9 1014.7 +18.4
06 16.08 В 4 20 км ясно +27.3 +15.4 48 +30 +37 душно 1013.2 1015.0
09 16.08 В 6
{11}
20 км пыльный позёмок ясно +30.7 +7.6 24 +30 +36 жарко 1012.7 1014.4
12 16.08 ЮВ 5-10
{12}
20 км пыльный позёмок ясно +30.7 +8.6 25 +30 +34 жарко 1011.2 1013.0
15 16.08 В 4
{12}
20 км ясно +27.8 +12.8 40 +29 +30 жарко 1010.5 1012.3 +31.5
18 16.08 СВ 2 20 км ясно +22.1 +15.4 66 +26 +26 душно 1011.0 1012.8
21 16.08 В 2 20 км 3/0
[Ci fib]
+20.1 +16.1 78 +23 +23 комфорт 1010.5 1012.3
00 17.08 СВ 2 20 км 4/0
[Ci]
+18.9 +16.0 83 +21 +21 комфорт 1010.2 1012.0
03 17.08 В 2 20 км 8/0
[Cs]
+20.7 +17.3 81 +25 +26 комфорт 1010.5 1012.3 +18.5
06 17.08 В 5 20 км 9/0
[Cs]
+28.0 +14.9 45 +31 +35 душно 1010.4 1012.2
09 17.08 ЮВ 4
{10}
20 км 9/3 600 м
[Sc Ac trans Ci sp]
+28.7 +14.2 41 +31 +35 жарко 1011.5 1013.3
12 17.08 В 4
{10}
20 км 9/0
[Ac As Ci fib]
+27.5 +17.1 53 +31 +34 душно 1011.3 1013.1
15 17.08 В 3 20 км 3/0
[Ac trans]
+27.0 +15.7 50 +30 +30 душно 1011.3 1013.1 +30.8
18 17.08 СВ 1 20 км 1/0
[Ac trans]
+21.5 +17.6 78 +26 +26 душно 1012.8 1014.6
21 17.08 ЮВ 2 20 км 8/0
[Ac trans Cs]
+20.2 +16.2 78 +24 +24 комфорт 1012.2 1014.0
00 18.08 ЮВ 2 20 км 10/0
[Ac As Cs]
+20.7 +13.5 63 +24 +24 комфорт 1011.3 1013.1
03 18.08 СВ 1 20 км 9/0
[Ac As Ci fib]
+20.5 +16.8 79 +25 +25 комфорт 1011.0 1012.8 +19.7
06 18.08 В 4 20 км 8/0
[Ac trans Cs]
+29.5 +13.2 37 +31 +36 жарко 1011.2 1013.0
09 18.08 В 5-10
{13}
20 км пыльный позёмок 3/0
[Ci sp]
+32.1 +12.1 29 +32 +40 жарко 1011.9 1013.7
12 18.08 В 6-12
{14}
20 км пыльный позёмок 1/0
[Ci sp]
+32.4 +10.3 26 +32 +35 жарко 1011.7 1013.4
15 18.08 В 4
{13}
20 км 9/0
[Ac cast Ci]
+29.1 +11.1 33 +30 +30 жарко 1012.0 1013.8 +33.2
18 18.08 СВ 2 20 км 8/0
[Ac trans Cs]
+24.3 +15.6 58 +27 +27 жарко 1013.2 1015.0
21 18.08 В 2 20 км 8/0
[Ac trans Cs]
+22.0 +16.7 72 +26 +26 душно 1012.9 1014.7
00 19.08 В 3 20 км 4/0
[Ac trans Ci sp]
+21.3 +17.0 76 +25 +25 комфорт 1013.3 1015.1
03 19.08 В 3 20 км 1/0
[Ac cast]
+22.5 +16.6 69 +27 +27 душно 1014.0 1015.8 +21.1
06 19.08 ЮВ 5-10
{10}
20 км пыльный позёмок ясно +30.0 +15.0 40 +32 +37 жарко 1014.9 1016.7
09 19.08 ЮВ 4-10
{11}
20 км пыльный позёмок 1/0
[Ci fib]
+32.7 +13.7 32 +34 +44 очень
жарко
1015.5 1017.3
12 19.08 В 4
{10}
20 км 1/0
[Ci sp]
+33.4 +15.9 35 +36 +41 очень
душно
1015.7 1017.4
15 19.08 В 3
{11}
20 км 4/0
[Ci sp]
+28.8 +18.2 53 +34 +34 очень
душно
1016.8 1018.6 +33.6
18 19.08 В 2 20 км ясно +22.8 +18.4 76 +28 +28 душно 1018.0 1019.8
21 19.08 В 2 20 км ясно +22.3 +16.7 71 +27 +27 душно 1018.0 1019.8
00 20.08 СВ 1 20 км ясно +19.9 +14.8 72 +23 +23 комфорт 1017.1 1018.9
03 20.08 ЮВ 2 20 км ясно +19.2 +17.0 87 +22 +22 комфорт 1017.9 1019.7 +18.2
06 20.08 В 2 20 км ясно +31.6 +16.6 41 +35 +44 очень
душно
1018.5 1020.3
09 20.08 В 4 20 км ясно +35.6 +7.9 18 +34 +44 очень
жарко
1018.3 1020.0
12 20.08 В 5
{12}
20 км пыльный позёмок ясно +34.9 +6.6 17 +33 +37 жарко 1017.9 1019.6
15 20.08 В 3
{11}
20 км ясно +30.9 +9.1 26 +30 +30 жарко 1017.7 1019.5 +36.0
18 20.08 В 2 20 км 1/0
[Ac cast]
+24.3 +16.9 63 +28 +28 душно 1018.8 1020.6
21 20.08 СВ 1 20 км 3/0
[Ac trans]
+20.0 +15.1 73 +23 +23 комфорт 1017.5 1019.4
00 21.08 СВ 1 20 км 6/0
[Ci]
+20.4 +14.7 70 +24 +24 комфорт 1016.4 1018.2
03 21.08 СВ 1 20 км 4/0
[Ac cast Ci fib]
+21.5 +12.9 58 +24 +25 комфорт 1016.6 1018.4 +18.7
06 21.08 В 3 20 км ясно +29.8 +17.8 49 +34 +42 очень
душно
1016.8 1018.6

 

Местоположение метеостанции Лиман (Астраханская область, Россия): широта 45.80 долгота 47.22 высота над уровнем моря -18 м.

В архиве по умолчанию представлена погода в Лимане за последнюю неделю. Архивные данные за месяц целиком и за предыдущие месяцы, начиная с января 2011 года, Вы можете получить, выбрав интересующий диапазон дат из раскрывающегося списка и нажав кнопку "Ввод!".


*Определитесь, кто Вы:
робот инопланетянин человек

Внимание! Время в таблицах - всемирное. Для получения местного времени необходимо прибавить поправку, которая равна 4 ч.

Смотрите также архив погоды в соседних городах и на ближайших метеорологических станциях:

Погода в Лагани (Калмыкия, Россия) (46 км)
Погода в Астрахани (Астраханская область, Россия) (79 км)
Погода в Артезиане (Калмыкия, Россия) (102 км)
Погода в Комсомольском (Калмыкия, Россия) (105 км)
Погода в Утте (Калмыкия, Россия) (112 км)
Погода в Зеленге (Астраханская область, Россия) (116 км)
Погода в Досанге (Астраханская область, Россия) (136 км)
Погода на Острове Тюлений (Дагестан, Россия) (149 км)
Погода в Яшкуле (Калмыкия, Россия) (151 км)
Погода в Юсте (Калмыкия, Россия) (163 км)

Пояснения к столбцам:

Ветер - указаны скорость ветра в м/с - средняя за 10 мин, порывы в срок и между сроками (в фигурных скобках) и направление, откуда дует ветер: С - северный, СВ - северо-восточный, В - восточный, ЮВ - юго-восточный, Ю - южный, ЮЗ - юго-западный, З - западный, СЗ - северо-западный.
Видимость - горизонтальная дальность видимости в метрах или километрах. При видимости от 1 до 10 км при отсутствии осадков обычно наблюдается дымка, при ухудшении видимости до 1 км и менее - туман. В сухую погоду видимость может ухудшаться дымом, пылью или мглою.
Явления - указаны атмосферные явления, наблюдавшиеся в срок или в последний час перед сроком; фигурными скобками обозначены явления, наблюдавшиеся между сроками (за 1-3 часа до срока); квадратными скобками обозначены град или гололедные отложения с указанием их диаметра в мм.
Облачность - указаны через наклонную черту общая и нижняя облачность в баллах и высота нижней границы облаков в метрах; квадратными скобками обозначены формы облаков: Ci - перистые, Cs - перисто-слоистые, Cc - перисто-кучевые, Ac - высококучевые, As - высокослоистые, Sc - слоисто-кучевые, Ns - слоисто-дождевые, Cu - кучевые, Cb - кучево-дождевые. Подробнее классификацию облаков см. в Атласе облаков (PDF).
T - Температура воздуха - температура, измеренная на высоте 2 м над землей.
Td - Температура точки росы - температура, при понижении до которой содержащийся в воздухе водяной пар достигнет насыщения.
f - Относительная влажность воздуха - влажноcть воздуха, измеренная на высоте 2 м над землей.
Te - Эффективная температура - температура, которую ощущает одетый по сезону человек в тени. Характеристика душности погоды. При расчете учитывается влияние влажности воздуха и скорости ветра на теплоощущения человека.
Tes - Эффективная температура на солнце - температура, которую ощущает человек, с поправкой на солнечный нагрев. Характеристика знойности погоды. Зависит от высоты солнца над горизонтом, облачности и скорости ветра. Ночью, в пасмурную погоду, а также при ветре 12 м/с и более поправка равна нулю.
P - Атмосферное давление - приведенное к уровню моря атмосферное давление.
Po - Атмосферное давление - измеренное на уровне метеостанции атмосферное давление.
Tmin - Минимальная температура - минимум температуры воздуха на высоте 2 м над землей.
Tmax - Максимальная температура - максимум температуры воздуха на высоте 2 м над землей.
R - Количество осадков - Количество выпавших осадков за период времени, мм. При наведении курсора мыши на число - период времени, за который выпало указанное количество осадков.
R24 - Количество осадков - Количество выпавших осадков за 24 часа, мм.
S - Снежный покров - Высота снежного покрова, см. При наведении курсора мыши на число - состояние снежного покрова и степень покрытия местности в баллах.